Location: Baia Mare
(47.6567°N, 23.5850°E)
Time: 20:23:50

ISS - Pass Details

Date: 04 April 2018
Orbit: 403 x 406 km, 51.6° (Epoch: 18 March)

Event Time Altitude Azimuth Distance (km) Brightness Sun altitude
Rises 21:47:13 0° 293° (WNW) 2,326 1.7 -17.8°
Reaches altitude 10° 21:49:19 10° 296° (WNW) 1,465 0.3 -18.1°
Maximum altitude 21:52:36 70° 20° (NNE) 434 -3.8 -18.5°
Enters shadow 21:52:57 62° 67° (ENE) 460 -3.8 -18.6°
